Total_Precipitation_Accumulation
3.25 3.65 3.57 3.61 3.31 3.46 3.84 4.19 4.19 4.41 4.68 4.52 3.98 3.74 3.87 3.76 3.45 3.22 3.37 3.57 3.67 3.69 4.19 4.52 4.19 3.86 3.69 3.33 3.01 2.83 2.69 2.62 2.43 2.14 1.96 1.86 1.75 1.57 1.45 1.49 1.37 1.28 1.18
3.47 3.84 3.76 3.64 3.29 3.31 3.70 4.05 4.09 4.40 4.51 4.54 3.98 3.65 3.68 3.60 3.27 2.96 3.03 3.50 3.60 3.54 3.84 4.31 4.43 4.34 4.15 3.79 3.39 3.08 2.83 2.69 2.57 2.37 2.09 1.91 1.82 1.73 1.72 1.60 1.48 1.44 1.34
3.72 4.04 3.97 3.53 3.26 3.37 3.63 3.65 3.81 4.27 4.16 4.08 3.97 3.83 3.74 3.52 3.19 3.11 3.05 3.26 3.14 3.32 3.65 3.85 4.17 4.50 4.59 4.45 4.17 3.74 3.38 2.93 2.65 2.45 2.17 1.94 1.84 1.72 1.71 1.69 1.61 1.54 1.45
3.35 3.77 3.50 3.04 3.08 3.27 3.57 3.67 3.60 3.98 4.13 4.12 4.15 3.96 3.75 3.55 3.14 3.03 3.04 3.02 3.03 2.83 3.17 3.53 3.94 4.30 4.74 5.01 5.09 4.94 4.46 3.70 3.09 2.74 2.39 2.14 1.97 1.77 1.59 1.53 1.59 1.60 1.46
2.45 2.84 2.83 2.74 2.74 3.05 3.17 2.82 3.10 3.43 3.67 3.83 3.49 3.43 3.09 2.92 2.83 2.61 2.57 2.50 2.74 2.91 3.09 3.16 3.54 3.87 4.57 5.45 6.01 5.96 5.47 4.56 3.71 3.24 2.91 2.61 2.44 2.13 1.74 1.53 1.53 1.52 1.45
2.27 2.55 2.58 2.42 2.37 2.66 2.83 2.97 3.27 3.29 3.16 3.23 2.76 2.79 2.78 2.56 2.58 2.53 2.35 2.36 2.49 2.46 2.77 3.10 3.41 3.19 3.77 4.84 5.64 5.88 5.80 5.34 4.47 3.78 3.43 3.25 3.14 2.74 2.17 1.86 1.75 1.62 1.53
2.41 2.74 2.52 2.60 2.43 2.49 2.59 2.67 2.89 2.97 2.75 2.92 3.27 3.12 2.79 2.52 2.48 2.42 2.36 2.47 2.51 2.60 2.81 3.23 3.44 3.46 3.33 3.39 3.91 4.70 5.42 5.76 5.54 4.80 4.13 3.73 3.60 3.17 2.56 2.30 2.07 1.91 1.86
2.32 2.28 2.53 2.40 2.35 2.59 2.57 2.66 2.90 2.84 2.54 2.71 3.23 3.50 3.30 3.27 2.71 2.04 2.23 2.38 2.45 2.72 2.75 2.71 2.96 3.51 3.58 3.73 3.09 3.45 4.67 5.48 6.06 6.05 5.34 4.48 4.05 3.55 2.97 2.73 2.48 2.28 2.14
1.96 2.09 2.17 2.16 2.34 2.31 2.55 2.69 2.77 2.94 2.91 2.66 2.66 3.18 3.24 3.26 2.97 2.36 2.01 2.12 2.45 2.83 2.85 2.81 2.75 3.10 3.45 3.90 3.72 3.23 3.55 4.15 5.24 6.27 6.38 5.49 4.42 3.63 3.25 3.13 3.06 2.80 2.54
1.94 1.98 2.05 2.24 2.34 2.22 2.58 2.32 2.48 2.86 3.03 2.74 2.71 2.62 2.69 2.92 3.01 2.84 2.43 2.10 2.28 2.45 2.66 2.67 2.69 2.98 3.26 3.54 3.64 3.02 2.65 2.89 3.88 5.18 6.11 6.14 5.29 4.26 3.67 3.68 3.92 3.74 3.34
2.04 1.86 2.09 2.41 2.51 2.35 2.41 2.50 2.82 2.78 2.77 2.74 2.70 2.63 2.72 2.79 2.61 2.69 2.68 2.47 2.29 1.94 2.07 2.41 2.68 2.82 2.98 3.25 3.52 3.17 2.93 2.69 2.79 3.40 4.17 4.96 5.42 5.12 4.66 4.54 4.85 5.05 4.83
2.09 1.99 2.15 2.44 2.48 2.54 2.53 2.49 2.60 2.66 2.77 2.86 2.76 2.54 2.61 2.72 2.73 2.85 2.59 2.51 2.53 2.14 2.18 2.45 2.57 2.76 2.79 2.96 2.91 2.88 2.81 2.72 2.62 2.60 2.87 3.36 4.07 4.69 4.94 5.13 5.46 5.81 5.98
1.88 2.02 2.12 2.37 2.40 2.43 2.36 2.59 2.62 2.60 2.74 2.73 2.66 2.61 2.50 2.41 2.55 2.73 2.74 2.53 2.49 2.34 2.54 2.49 2.49 2.56 2.53 2.83 3.01 2.98 2.53 2.53 2.35 2.28 2.36 2.60 2.95 3.60 4.28 4.72 5.14 5.68 6.06
1.57 1.71 1.87 1.94 2.04 2.08 2.06 2.61 2.52 2.59 2.71 2.56 2.35 2.74 2.62 2.30 2.46 2.59 2.88 3.14 2.93 2.74 2.78 2.65 2.57 2.60 2.75 2.89 3.05 3.06 2.55 2.53 2.31 2.12 2.00 1.98 2.08 2.35 2.85 3.27 3.67 4.11 4.59
1.63 1.70 1.75 1.98 2.12 2.20 2.28 2.59 2.54 2.52 2.72 2.52 2.46 2.63 2.55 2.45 2.43 2.38 2.80 3.22 3.45 3.21 2.96 2.80 2.52 2.42 2.56 2.70 2.82 2.49 2.32 2.42 2.24 2.05 1.89 1.79 1.77 1.87 2.09 2.29 2.41 2.52 2.70
1.77 1.89 1.95 2.10 2.23 2.23 2.29 2.52 2.45 2.56 2.70 2.57 2.57 2.62 2.53 2.45 2.58 2.51 2.64 2.96 3.25 3.45 3.16 2.62 2.43 2.30 2.32 2.14 2.33 2.06 2.11 2.31 2.12 1.92 1.80 1.77 1.75 1.76 1.81 1.90 1.97 1.97 2.02
1.84 1.92 2.02 2.19 2.24 2.33 2.46 2.60 2.39 2.52 2.65 2.81 2.68 2.71 2.76 2.87 2.84 2.76 2.85 2.92 3.13 3.44 3.31 2.72 2.59 2.55 2.42 2.16 2.12 2.01 1.96 2.07 2.09 2.15 1.94 1.81 1.69 1.59 1.61 1.67 1.74 1.81 1.87
2.14 2.09 2.15 2.23 2.13 2.21 2.47 2.54 2.48 2.55 2.60 2.63 2.80 3.09 3.00 3.08 3.03 2.86 3.00 2.93 3.05 3.42 3.29 2.92 2.86 2.87 2.79 2.53 2.37 2.16 1.93 1.92 2.06 2.32 2.03 1.85 1.75 1.66 1.63 1.64 1.67 1.67 1.67
2.41 2.46 2.46 2.33 2.27 2.28 2.37 2.47 2.58 2.61 2.61 2.67 2.81 2.89 2.95 3.21 3.09 3.00 2.91 2.88 3.00 3.21 3.37 3.06 2.93 3.13 2.98 2.67 2.53 2.23 2.01 2.12 1.89 2.02 1.99 1.92 1.88 1.78 1.71 1.63 1.67 1.69 1.64
2.52 2.65 2.60 2.55 2.48 2.36 2.23 2.20 2.30 2.40 2.55 2.69 2.74 2.67 2.76 3.01 3.11 3.12 2.90 2.92 3.10 3.23 3.30 3.20 3.03 3.15 3.18 3.07 2.90 2.61 2.48 2.31 2.12 1.95 2.03 1.95 1.94 1.86 1.73 1.60 1.64 1.68 1.67
2.48 2.65 2.71 2.74 2.69 2.47 2.18 2.26 2.43 2.43 2.60 2.59 2.50 2.41 2.41 2.67 2.91 3.01 2.74 2.80 3.02 3.04 3.04 3.08 3.03 3.12 3.19 3.34 3.15 2.82 2.56 2.40 2.16 1.98 2.01 1.88 1.85 1.75 1.74 1.76 1.73 1.65 1.48
2.87 2.90 2.77 2.71 2.62 2.21 2.39 2.46 2.47 2.49 2.62 2.61 2.51 2.41 2.30 2.27 2.30 2.48 2.61 2.74 2.91 2.91 2.93 3.11 3.24 3.29 3.29 3.36 3.35 3.11 2.81 2.56 2.31 2.06 2.18 2.15 2.06 1.99 1.80 1.65 1.71 1.64 1.48
3.21 3.19 3.03 2.83 2.66 2.60 2.59 2.38 2.34 2.21 2.26 2.33 2.44 2.42 2.11 1.91 2.04 1.97 2.21 2.38 2.46 2.57 2.68 2.93 3.09 3.13 3.26 3.41 3.52 3.22 3.03 2.82 2.52 2.26 2.29 2.11 2.03 2.02 1.91 1.85 1.95 1.73 1.61
3.14 3.15 3.04 2.89 2.74 2.66 2.58 2.29 2.27 2.05 2.04 2.08 2.17 2.21 2.15 1.99 1.98 2.12 2.13 2.04 1.96 2.03 2.24 2.31 2.44 2.72 2.95 3.18 3.39 3.30 3.23 2.92 2.56 2.31 2.27 2.08 1.91 1.92 1.93 1.97 2.05 1.88 1.69
2.90 2.79 2.70 2.69 2.66 2.71 2.73 2.41 2.23 1.98 2.01 1.98 1.99 2.01 2.05 1.95 2.14 2.13 2.05 1.99 1.98 1.97 2.08 2.21 2.22 2.38 2.63 2.78 2.95 3.07 3.05 2.92 2.63 2.40 2.38 2.32 2.06 2.00 2.00 1.89 1.82 1.88 1.73
2.80 2.71 2.57 2.55 2.55 2.53 2.62 2.26 2.11 1.92 1.94 1.93 1.97 2.00 2.04 1.96 2.02 1.93 1.83 1.92 1.89 1.91 2.02 2.03 2.05 2.07 2.14 2.45 2.83 2.66 2.71 2.79 2.56 2.26 2.05 2.17 2.14 2.20 2.16 1.83 1.62 1.59 1.57